#timestamp,LO_Frequency,Hit 
1502586015.3,286046999.3,N
1502586035.1,286046998.8,N
1502586055.9,286046998.2,N
1502586075.7,286047001.2,N
1502586095.6,286047001.1,N
1502586115.4,286046998.7,N
1502586135.2,286046998.5,N
1502586155.1,286047000.0,N
1502586156.0,286047000.0,N
1502586175.8,286047000.5,N
1502586195.6,286047000.6,N
1502586215.5,286047000.5,N
1502586235.3,286047000.7,N
1502586255.2,286046998.6,N
1502586275.9,286046999.2,N
1502586295.7,286046998.5,N
1502586315.6,286046998.2,N
1502586335.4,286047000.9,N
1502586355.3,286047000.0,N
1502586375.1,286047000.9,N
1502586376.0,286047000.9,N
1502586395.8,286046998.5,N
1502586415.7,286046998.1,N
1502586435.5,286046999.0,N
1502586455.3,286047000.8,N
1502586475.2,286046999.6,N
1502586495.0,286046997.0,N
1502586495.9,286046997.0,N
1502586515.8,286046997.3,N
1502586535.6,286046999.1,N
1502586555.4,286046999.0,N
1502586575.3,286046998.7,N
1502586595.1,286047000.1,N
1502586615.9,286047001.6,N
1502586635.7,286047003.5,N
1502586655.5,286047005.5,P
1502586675.4,286047005.8,N
1502586695.2,286047003.6,N
1502586715.1,286047003.2,N
1502586716.0,286047003.2,N
1502586735.8,286047004.2,N
1502586755.6,286047004.0,N
1502586775.5,286047001.6,N
1502586795.3,286047000.5,N
1502586815.2,286047002.6,N
1502586835.9,286047001.6,N
1502586855.7,286047004.1,N
1502586875.6,286047003.1,N
1502586895.4,286047003.9,N
1502586915.2,286047004.3,N
1502586935.1,286047004.1,N
1502586936.0,286047004.1,N
1502586955.8,286047004.1,N
1502586975.7,286047003.8,N
1502586995.5,286047001.6,N
1502587015.3,286047004.0,N
1502587035.2,286047004.4,N
1502587055.0,286047004.1,N
1502587055.9,286047004.1,N
1502587075.8,286047001.4,N
1502587095.6,286047004.4,P
1502587115.4,286047002.1,P
1502587135.3,286047002.3,N
1502587155.1,286047002.6,N
1502587175.8,286047002.5,N
1502587195.7,286047002.1,N
1502587215.5,286047002.4,P
1502587235.4,286046997.1,P
1502587255.2,286046999.4,N
1502587275.0,286046997.6,N
1502587275.9,286046997.6,N
1502587295.8,286046999.5,N
1502587315.6,286046999.1,N
1502587335.5,286046997.4,N
1502587355.3,286046996.6,P
1502587375.1,286046999.6,N
1502587395.9,286046998.3,N
1502587415.7,286047000.9,N
1502587435.6,286047000.1,N
1502587455.4,286047002.7,N
1502587475.2,286047000.3,N
1502587495.1,286046999.9,N
1502587496.0,286046999.9,N
1502587515.8,286047001.1,N
1502587535.7,286047000.7,N
1502587555.5,286046998.4,N
1502587575.3,286046999.3,N
1502587595.2,286046999.1,N
1502587615.0,286046999.0,N
1502587615.9,286046999.0,N
1502587635.7,286046999.6,N
1502587655.6,286046996.7,N
1502587675.4,286046998.0,N
1502587695.3,286046997.5,N
1502587715.1,286046997.5,N
1502587735.8,286046997.4,N
1502587755.7,286046997.4,N
1502587775.5,286046997.6,N
1502587795.4,286046997.4,N
1502587815.2,286046995.4,P
1502587835.0,286046997.6,N
1502587835.9,286046997.6,N
1502587855.8,286046997.6,N
1502587875.6,286046995.1,P
1502587895.5,286046998.9,N
1502587915.3,286046998.9,N
1502587935.1,286046998.4,N
1502587955.9,286046998.8,N
1502587975.7,286046998.6,N
1502587995.5,286047001.0,N
1502588015.4,286046998.3,N
1502588035.2,286046998.8,N
1502588055.1,286046998.7,N
1502588056.0,286046998.7,N
1502588075.8,286046999.0,N
1502588095.6,286046998.9,N
1502588115.5,286046998.6,N
1502588135.3,286046998.5,N
1502588155.2,286046998.7,N
1502588175.9,286046997.8,N
1502588195.7,286046996.6,P
1502588215.6,286047000.5,N
1502588235.4,286047000.5,N
1502588255.3,286047000.2,N
1502588275.1,286047000.2,N
1502588276.0,286047000.2,N
1502588295.8,286047002.3,N
1502588315.7,286047000.6,N
1502588335.5,286047000.5,N
1502588355.3,286047002.7,N
1502588375.2,286047001.4,N
1502588395.0,286047000.1,N
1502588395.9,286047000.1,N
1502588415.8,286046999.7,N
1502588435.6,286047002.0,N
1502588455.4,286047003.3,N
1502588475.3,286047004.3,N
1502588495.1,286047001.9,N
1502588515.9,286047003.9,N
1502588535.7,286047001.7,N
1502588555.5,286047000.4,N
1502588575.4,286047000.0,N
1502588595.2,286047003.6,N
1502588615.1,286047005.5,P
1502588616.0,286047005.5,N
1502588635.8,286047011.9,P
1502588655.6,286047005.8,N
1502588675.5,286047004.6,N
1502588695.3,286047007.4,N
1502588715.1,286047006.4,N
1502588735.9,286047008.9,P
1502588755.7,286047003.3,N
1502588775.6,286047003.5,N
1502588795.4,286047002.8,N
1502588815.2,286047004.3,N
1502588835.1,286047001.4,N
1502588836.0,286047001.4,N
1502588855.8,286047001.9,N
1502588875.7,286047001.7,N
1502588895.5,286047003.2,N
1502588915.3,286047004.4,N
1502588935.2,286047003.1,N
1502588955.0,286047006.1,P
1502588955.9,286047006.1,P
1502588975.8,286047003.8,P
1502588995.6,286047003.3,N
1502589015.4,286047001.3,N
1502589035.3,286047002.8,N
1502589055.1,286047000.1,N
1502589075.9,286047002.4,N
1502589095.7,286046999.7,N
1502589115.5,286047000.3,N
1502589135.4,286046998.9,N
1502589155.2,286046998.8,N
1502589175.0,286046996.6,N
1502589175.9,286046996.6,N
1502589195.8,286046995.9,N
1502589215.6,286046997.8,N
1502589235.5,286046997.4,N
1502589255.3,286046999.6,N
1502589275.1,286046996.7,N
1502589295.9,286046998.0,N
1502589315.7,286046999.6,N
1502589335.5,286046998.4,N
1502589355.4,286046999.0,N
1502589375.2,286046996.6,N
1502589395.1,286046998.9,N
1502589396.0,286046998.9,N
1502589415.8,286046997.3,N
1502589435.6,286046997.4,N
1502589455.5,286046997.7,N
1502589475.3,286046996.7,N
1502589495.2,286046997.0,N
1502589515.9,286046999.1,N
1502589535.7,286046999.3,N
1502589555.6,286046998.9,N
1502589575.4,286046996.6,N
1502589595.2,286046998.5,N
